sat.trackr.live / text

‹ back to catalog

STARLINK-36404

NORAD 67664 · 2026-022S

PAYLOAD ACTIVE UNKNOWN

§ Identity

Operator
Country
US
Launch date
2026-02-02
Launch site
AFWTR
Launch vehicle
Mass (kg)
RCS (m²)

Purposes: comms

External: N2YO · Heavens-Above · Gunter

§ Orbital elements

Epoch: 2026-05-25T01:38:16.478592Z

Period
93.91 min
Inclination
97.2841°
Eccentricity
0.0001434
Mean motion
15.33449717 rev/d
Perigee alt
464.5 km
Apogee alt
466.5 km
Semi-major
6,843.7 km
B*
5.5765e-4
RAAN
178.2590°
Arg perigee
78.1070°
Mean anomaly
282.0333°
Rev number
1,727

§ Raw data

STARLINK-364041 67664U 26022S   26145.06824628  .00017974  00000+0  55765-3 0  99932 67664  97.2841 178.2590 0001434  78.1070 282.0333 15.33449717 17271

JSON: /api/v1/satellites/67664 · /tle

For live sub-satellite position, see the globe view (requires WebGL).

§ Visibility from observer

Set your observer location to see the next 7 days of passes ≥ 10°. The values pass through the URL so the page stays shareable.

No JS? Fill the form by hand. The geolocation button needs JavaScript.